Weather History for Algona, IA

Change the Weather History Date:

Thursday, November 24, 2011

  Actual Average Record
Temperature  
Mean Temperature 48 °F -  
Max Temperature 64 °F 38 °F 64 °F (2011)
Min Temperature 33 °F 24 °F 3 °F (1996)
Degree Days  
Heating Degree Days 16    
Moisture  
Dew Point 37 °F    
Average Humidity 73    
Maximum Humidity 100    
Minimum Humidity 37    
Precipitation  
Precipitation 0.00 in - - ()
Sea Level Pressure  
Sea Level Pressure 29.90 in    
Wind  
Wind Speed 16 mph (South)    
Max Wind Speed 28 mph    
Max Gust Speed 34 mph    
Visibility 6 miles    
Events      
Averages and records for this station are not official NWS values.
T = Trace of Precipitation, MM = Missing Value Source: NWS Daily Summary

Daily Weather History Graph

Daily Weather History Graph

Search for Another Location

Airport:

Trip Planner

Search our weather history database for the weather conditions in past years. The results will help you decide how hot, cold, wet, or windy it might be!

Date:

Astronomy

Nov. 24, 2011 Rise Set
Actual Time 7:20 AM CST 4:46 PM CST
Civil Twilight 6:49 AM CST 5:17 PM CST
Nautical Twilight 6:14 AM CST 5:52 PM CST
Astronomical Twilight 5:40 AM CST 6:26 PM CST
Moon 6:39 AM CST (11/24) 4:17 PM CST (11/24)
Length of Visible Light 10h 28m
Length of Day
9h 26m
Waning Crescent, 0% of the Moon is Illuminated
Nov 24
Waning Crescent
Nov 25
New
Dec 2
First Quarter
Dec 10
Full
Dec 17
Last Quarter

Hourly Weather History & Observations

Time (CST) Temp. Windchill Dew Point Humidity Pressure Visibility Wind Dir Wind Speed Gust Speed Precip Events Conditions
12:15 AM 33.8 °F 25.3 °F 33.8 °F 100% 30.04 in 2.5 mi South 11.5 mph - N/A   Clear
12:35 AM 33.8 °F 25.3 °F 33.8 °F 100% 30.03 in 2.0 mi South 11.5 mph - N/A   Clear
12:55 AM 33.8 °F 26.4 °F 32.0 °F 93% 30.03 in 2.0 mi South 9.2 mph - N/A   Clear
1:15 AM 33.8 °F 26.4 °F 33.8 °F 100% 30.02 in 1.8 mi South 9.2 mph - N/A   Mist
1:35 AM 33.8 °F 25.3 °F 32.0 °F 93% 30.01 in 2.0 mi South 11.5 mph - N/A   Clear
1:55 AM 33.8 °F 25.3 °F 33.8 °F 100% 30.01 in 2.0 mi South 11.5 mph - N/A   Clear
2:15 AM 33.8 °F 24.8 °F 33.8 °F 100% 30.01 in 2.0 mi South 12.7 mph - N/A   Clear
2:35 AM 33.8 °F 24.8 °F 33.8 °F 100% 30.01 in 2.0 mi South 12.7 mph - N/A   Clear
2:55 AM 33.8 °F 25.3 °F 33.8 °F 100% 30.00 in 2.0 mi South 11.5 mph - N/A   Clear
3:15 AM 33.8 °F 24.8 °F 33.8 °F 100% 30.00 in 2.0 mi South 12.7 mph - N/A   Clear
3:35 AM 33.8 °F 24.8 °F 33.8 °F 100% 29.99 in 2.0 mi South 12.7 mph - N/A   Clear
3:55 AM 33.8 °F 23.9 °F 33.8 °F 100% 29.98 in 2.0 mi South 15.0 mph - N/A   Clear
4:15 AM 33.8 °F 24.3 °F 33.8 °F 100% 29.97 in 2.5 mi South 13.8 mph - N/A   Clear
4:35 AM 33.8 °F 24.8 °F 33.8 °F 100% 29.97 in 2.5 mi South 12.7 mph - N/A   Clear
5:15 AM 35.6 °F 26.6 °F 35.6 °F 100% 29.97 in 3.0 mi South 13.8 mph - N/A   Clear
5:55 AM 35.6 °F 26.6 °F 33.8 °F 93% 29.96 in 3.0 mi South 13.8 mph - N/A   Clear
6:15 AM 35.6 °F 26.6 °F 33.8 °F 93% 29.95 in 4.0 mi South 13.8 mph - N/A   Clear
6:35 AM 35.6 °F 26.2 °F 33.8 °F 93% 29.95 in 4.0 mi South 15.0 mph - N/A   Clear
6:55 AM 33.8 °F 23.9 °F 33.8 °F 100% 29.95 in 3.0 mi South 15.0 mph - N/A   Clear
7:15 AM 33.8 °F 23.9 °F 33.8 °F 100% 29.95 in 3.0 mi South 15.0 mph - N/A   Clear
7:35 AM 35.6 °F 26.2 °F 35.6 °F 100% 29.95 in 3.0 mi SSE 15.0 mph - N/A   Clear
7:55 AM 35.6 °F 25.9 °F 35.6 °F 100% 29.95 in 3.0 mi South 16.1 mph - N/A   Clear
8:15 AM 37.4 °F 28.2 °F 35.6 °F 93% 29.95 in 3.0 mi South 16.1 mph - N/A   Clear
8:35 AM 37.4 °F 28.2 °F 35.6 °F 93% 29.95 in 3.0 mi South 16.1 mph - N/A   Scattered Clouds
8:55 AM 39.2 °F 29.3 °F 37.4 °F 93% 29.94 in 4.0 mi South 20.7 mph 24.2 mph N/A   Scattered Clouds
9:15 AM 42.8 °F 34.0 °F 39.2 °F 87% 29.93 in 4.0 mi South 20.7 mph - N/A   Clear
9:35 AM 44.6 °F 36.1 °F 39.2 °F 81% 29.93 in 5.0 mi South 21.9 mph - N/A   Clear
9:55 AM 46.4 °F 38.1 °F 41.0 °F 81% 29.93 in 7.0 mi South 24.2 mph - N/A   Clear
10:15 AM 48.2 °F - 41.0 °F 76% 29.93 in 7.0 mi South 24.2 mph - N/A   Clear
10:35 AM 50.0 °F - 42.8 °F 76% 29.92 in 7.0 mi South 20.7 mph - N/A   Clear
10:55 AM 51.8 °F - 42.8 °F 71% 29.91 in 10.0 mi South 19.6 mph 26.5 mph N/A   Clear
11:15 AM 55.4 °F - 42.8 °F 63% 29.89 in 10.0 mi South 24.2 mph 27.6 mph N/A   Clear
11:35 AM 55.4 °F - 42.8 °F 63% 29.89 in 10.0 mi South 23.0 mph - N/A   Clear
11:55 AM 57.2 °F - 42.8 °F 59% 29.87 in 10.0 mi SSW 23.0 mph 28.8 mph N/A   Clear
12:15 PM 59.0 °F - 42.8 °F 55% 29.86 in 10.0 mi South 23.0 mph 29.9 mph N/A   Clear
12:35 PM 60.8 °F - 42.8 °F 52% 29.85 in 10.0 mi South 21.9 mph 27.6 mph N/A   Scattered Clouds
12:55 PM 60.8 °F - 41.0 °F 48% 29.84 in 10.0 mi South 25.3 mph - N/A   Clear
1:15 PM 62.6 °F - 41.0 °F 45% 29.83 in 10.0 mi SSW 26.5 mph 29.9 mph N/A   Clear
2:15 PM 64.4 °F - 39.2 °F 40% 29.81 in 10.0 mi South 26.5 mph 32.2 mph N/A   Unknown
2:35 PM 64.4 °F - 37.4 °F 37% 29.80 in 10.0 mi South 27.6 mph 34.5 mph N/A   Unknown
2:55 PM 64.4 °F - 37.4 °F 37% 29.80 in 10.0 mi South 20.7 mph 27.6 mph N/A   Unknown
3:15 PM 64.4 °F - 37.4 °F 37% 29.80 in 10.0 mi South 26.5 mph 32.2 mph N/A   Unknown
3:35 PM 64.4 °F - 37.4 °F 37% 29.80 in 10.0 mi South 25.3 mph 29.9 mph N/A   Unknown
3:55 PM 64.4 °F - 37.4 °F 37% 29.80 in 10.0 mi South 20.7 mph 27.6 mph N/A   Unknown
4:15 PM 64.4 °F - 37.4 °F 37% 29.79 in 10.0 mi South 20.7 mph - N/A   Unknown
4:35 PM 64.4 °F - 37.4 °F 37% 29.80 in 10.0 mi South 23.0 mph 28.8 mph N/A   Unknown
4:55 PM 62.6 °F - 37.4 °F 39% 29.79 in 10.0 mi South 17.3 mph - N/A   Unknown
5:15 PM 60.8 °F - 37.4 °F 42% 29.80 in 10.0 mi South 20.7 mph 25.3 mph N/A   Unknown
5:35 PM 59.0 °F - 39.2 °F 48% 29.80 in 10.0 mi South 17.3 mph - N/A   Unknown
5:55 PM 57.2 °F - 39.2 °F 51% 29.79 in 10.0 mi South 18.4 mph - N/A   Clear
6:15 PM 57.2 °F - 39.2 °F 51% 29.79 in 10.0 mi South 19.6 mph - N/A   Clear
6:35 PM 57.2 °F - 39.2 °F 51% 29.79 in 10.0 mi South 21.9 mph 26.5 mph N/A   Clear
6:55 PM 57.2 °F - 39.2 °F 51% 29.79 in 10.0 mi South 20.7 mph - N/A   Clear
7:35 PM 55.4 °F - 39.2 °F 54% 29.79 in 10.0 mi South 20.7 mph - N/A   Clear
7:55 PM 55.4 °F - 39.2 °F 54% 29.78 in 10.0 mi South 20.7 mph - N/A   Clear
8:15 PM 55.4 °F - 39.2 °F 54% 29.78 in 10.0 mi South 20.7 mph - N/A   Clear
8:35 PM 53.6 °F - 39.2 °F 58% 29.78 in 10.0 mi South 20.7 mph 25.3 mph N/A   Clear
8:55 PM 53.6 °F - 39.2 °F 58% 29.77 in 10.0 mi South 19.6 mph - N/A   Clear
9:15 PM 53.6 °F - 39.2 °F 58% 29.77 in 10.0 mi South 19.6 mph - N/A   Clear
9:35 PM 51.8 °F - 39.2 °F 62% 29.77 in 10.0 mi South 18.4 mph - N/A   Clear
9:55 PM 51.8 °F - 39.2 °F 62% 29.77 in 10.0 mi South 18.4 mph - N/A   Clear
10:35 PM 50.0 °F - 39.2 °F 66% 29.76 in 10.0 mi South 16.1 mph - N/A   Clear
11:15 PM 48.2 °F - 39.2 °F 71% 29.76 in 10.0 mi South 16.1 mph - N/A   Clear
11:55 PM 48.2 °F - 39.2 °F 71% 29.75 in 10.0 mi South 13.8 mph - N/A   Clear